[[{"header":{"parameterUnit":"m.s-1","parameterCategory":1,"la1":30.2991,"la2":30.254,"lo1":-89.0895,"lo2":-89.0444,"dy":0.0017,"dx":0.0017,"nx":28,"ny":28,"refTime":"2023-09-22T21:00:00:Z","depth":0,"parameterNumber":2,"parameterNumberName":"U-component_of_WINDS"},"data":[0,0,0,0,0,0,0,0,0,0,0,0,0,0,0,0,0,0,0,0,0,0,0,0,0,0,0,0,0,0,0,0,0,0,0,0,0,0,0,0,0,0,0,0,0,0,0,0,0,0,0,0,0,0,0,0,0,0,-0.1058,-0.1058,0,-0.1056,-0.1056,-0.1056,-0.1044,-0.1044,-0.1044,-0.1043,-0.1042,-0.1042,-0.1042,0,0,0,0,0,0,0,0,0,0,0,0,0,-0.1054,-0.1054,-0.1058,-0.1058,-0.1058,-0.1056,-0.1056,-0.1056,-0.1044,-0.1044,-0.1044,-0.1043,-0.1042,-0.1042,-0.1042,0,0,0,0,0,0,0,0,0,0,0,0,0,-0.1054,-0.1054,-0.1058,-0.1052,-0.1051,-0.1056,-0.1056,-0.1056,-0.1044,-0.1044,-0.1044,-0.1043,-0.1042,-0.1042,-0.1042,-0.1053,0,0,-0.1043,-0.1044,0,0,0,0,0,0,0,0,-0.1054,-0.1054,-0.1053,-0.1052,-0.1052,-0.105,-0.1054,-0.1055,-0.1044,-0.1047,-0.1043,-0.1043,-0.1045,-0.1045,-0.1046,-0.1053,-0.1053,-0.1043,-0.1044,-0.1044,-0.1044,0,0,0,0,0,0,0,-0.1054,-0.1054,-0.1057,-0.1053,-0.1052,-0.105,-0.105,-0.1054,-0.1048,-0.1047,-0.1046,-0.1046,-0.1045,-0.1045,-0.1045,-0.1053,-0.1043,-0.1044,-0.1044,-0.1044,-0.1069,-0.107,0,0,0,0,0,0,-0.1055,-0.1055,-0.1057,-0.1057,-0.1052,-0.105,-0.105,-0.1051,-0.1048,-0.1048,-0.1046,-0.1045,-0.1045,-0.1045,-0.1045,-0.1058,-0.1044,-0.1044,-0.1044,-0.1069,-0.107,-0.107,0,0,0,0,0,0,-0.1055,-0.1055,-0.1057,-0.1056,-0.1056,-0.1051,-0.1052,-0.1051,-0.1052,-0.1048,-0.1047,-0.1048,-0.1045,-0.1045,-0.1051,-0.1058,-0.1044,-0.1045,-0.1068,-0.1069,-0.107,-0.1083,0,0,0,0,0,0,-0.1055,-0.1055,-0.1059,-0.1056,-0.1056,-0.1063,-0.1053,-0.1051,-0.1052,-0.1051,-0.1049,-0.1048,-0.1044,-0.1051,-0.1052,-0.1058,-0.1045,-0.1068,-0.1069,-0.107,-0.1082,-0.1084,-0.1086,0,0,0,0,0,-0.1055,-0.1062,-0.1059,-0.1059,-0.106,-0.1063,-0.1063,-0.1058,-0.1053,-0.1056,-0.1054,-0.1048,-0.1057,-0.1052,-0.1052,-0.1059,-0.1067,-0.1068,-0.1069,-0.1081,-0.1084,-0.1086,0,0,0,0,0,0,-0.1066,-0.1062,-0.1058,-0.1065,-0.1064,-0.1061,-0.1066,-0.1061,-0.1062,-0.1061,-0.1055,-0.1055,-0.1062,-0.1061,-0.1055,-0.1069,-0.1061,-0.1063,-0.107,-0.1072,-0.1074,-0.1074,-0.1045,0,0,0,0,0,-0.107,-0.1072,-0.1068,-0.1075,-0.1075,-0.107,-0.1072,-0.1068,-0.1067,-0.1067,-0.1065,-0.1065,-0.1068,-0.107,-0.1072,-0.1082,-0.1082,-0.1087,-0.1089,-0.109,-0.1092,-0.1098,-0.11,-0.1074,-0.1074,-0.1074,0,0,-0.1076,-0.1074,-0.1076,-0.1077,-0.1076,-0.108,-0.107,-0.1074,-0.1077,-0.1068,-0.1074,-0.1073,-0.1072,-0.1081,-0.1084,-0.108,-0.1099,-0.1092,-0.1093,-0.1094,-0.1099,-0.1102,-0.1104,-0.1074,-0.1074,-0.1074,0,0,-0.1091,-0.1089,-0.1095,-0.1095,-0.1094,-0.1091,-0.1092,-0.109,-0.1089,-0.1095,-0.1088,-0.1092,-0.1097,-0.1097,-0.1098,-0.1114,-0.1109,-0.1115,-0.1125,-0.1131,-0.1133,-0.1135,-0.1142,-0.1144,-0.1116,-0.1116,-0.1116,0,-0.1099,-0.1104,-0.1098,-0.1103,-0.1104,-0.1096,-0.1102,-0.1102,-0.1102,-0.1104,-0.1099,-0.1105,-0.1105,-0.1113,-0.1117,-0.1118,-0.112,-0.1115,-0.1133,-0.1135,-0.1137,-0.1143,-0.1146,-0.1117,-0.1117,-0.1117,-0.1117,0,-0.1115,-0.1119,-0.1123,-0.1124,-0.1125,-0.1131,-0.1127,-0.1129,-0.1125,-0.1123,-0.113,-0.1129,-0.1132,-0.1134,-0.113,-0.1142,-0.114,-0.1134,-0.1126,-0.114,-0.1146,-0.1148,-0.1118,-0.1118,-0.1117,-0.1117,0,0,-0.1136,-0.1134,-0.1136,-0.1137,-0.1136,-0.1138,-0.1144,-0.1146,-0.1149,-0.115,-0.1155,-0.1159,-0.1155,-0.1156,-0.1152,-0.1158,-0.1172,-0.1152,-0.1152,-0.1156,-0.1187,-0.1191,-0.1194,-0.1169,-0.1169,-0.1169,-0.1187,0,-0.115,-0.1159,-0.1155,-0.1165,-0.1168,-0.1162,-0.1167,-0.1167,-0.1166,-0.1169,-0.1168,-0.1171,-0.1164,-0.1165,-0.117,-0.1169,-0.1178,-0.1168,-0.1174,-0.1174,-0.1175,-0.1197,-0.1201,-0.1218,-0.1189,-0.1189,-0.119,0,-0.1168,-0.117,-0.118,-0.1179,-0.1181,-0.1185,-0.1188,-0.1191,-0.1192,-0.119,-0.1192,-0.1188,-0.1194,-0.1186,-0.1195,-0.1189,-0.1191,-0.1191,-0.1192,-0.1192,-0.1183,-0.1199,-0.1223,-0.1226,-0.1193,-0.1193,-0.1193,0,-0.1183,-0.1188,-0.1195,-0.1196,-0.1195,-0.1198,-0.1198,-0.1199,-0.1201,-0.1203,-0.1205,-0.1208,-0.121,-0.1213,-0.121,-0.1204,-0.122,-0.1212,-0.122,-0.122,-0.1224,-0.1224,-0.1249,-0.1225,-0.1225,-0.1225,-0.1225,0,-0.12,-0.1206,-0.1202,-0.1206,-0.1214,-0.1209,-0.1217,-0.1217,-0.1217,-0.1222,-0.1216,-0.1221,-0.1217,-0.1221,-0.1219,-0.1228,-0.1229,-0.1229,-0.1228,-0.1229,-0.1229,-0.1231,-0.123,-0.1225,-0.1225,-0.1225,-0.1225,0,-0.1218,-0.1215,-0.1222,-0.1221,-0.1221,-0.1227,-0.1227,-0.1231,-0.123,-0.1236,-0.1237,-0.1235,-0.124,-0.1238,-0.1243,-0.1242,-0.1253,-0.1251,-0.1253,-0.1253,-0.1262,-0.1261,-0.129,-0.1294,-0.1266,-0.1266,-0.1266,0,-0.1229,-0.1234,-0.1234,-0.1236,-0.1237,-0.1241,-0.1244,-0.124,-0.1242,-0.1245,-0.1249,-0.1254,-0.1257,-0.1266,-0.1266,-0.127,-0.1268,-0.1278,-0.1269,-0.1271,-0.127,-0.127,-0.1271,-0.128,-0.128,-0.1281,-0.1281,0,-0.1249,-0.1247,-0.1251,-0.1254,-0.1257,-0.126,-0.1261,-0.1264,-0.1261,-0.1264,-0.127,-0.1272,-0.1278,-0.1284,-0.1288,-0.1289,-0.1285,-0.1284,-0.1286,-0.1288,-0.1289,-0.1289,-0.1259,-0.1283,-0.1283,-0.1283,-0.1283,-0.1283,-0.1264,-0.1269,-0.127,-0.1274,-0.1275,-0.1278,-0.1282,-0.1281,-0.1286,-0.129,-0.1288,-0.1294,-0.1296,-0.1302,-0.1303,-0.1309,-0.1305,-0.1308,-0.1309,-0.131,-0.1312,-0.1288,-0.131,-0.131,-0.131,-0.1309,-0.1309,0,-0.1284,-0.1285,-0.1289,-0.1292,-0.1296,-0.1292,-0.1294,-0.1298,-0.1303,-0.1306,-0.1309,-0.1316,-0.1322,-0.1322,-0.1327,-0.1332,-0.133,-0.1334,-0.1333,-0.1334,-0.1315,-0.1312,-0.1335,-0.1335,-0.1335,-0.1335,-0.1335,-0.1335,-0.1296,-0.1303,-0.1302,-0.1311,-0.1312,-0.1318,-0.132,-0.1323,-0.1325,-0.1332,-0.1337,-0.1337,-0.1339,-0.1344,-0.135,-0.135,-0.1352,-0.1356,-0.1356,-0.1338,-0.1335,-0.1333,-0.1331,-0.1357,-0.1357,-0.1375,-0.1375,-0.1375]},{"header":{"parameterUnit":"m.s-1","parameterCategory":1,"la1":30.2991,"la2":30.254,"lo1":-89.0895,"lo2":-89.0444,"dy":0.0017,"dx":0.0017,"nx":28,"ny":28,"refTime":"2023-09-22T21:00:00:Z","depth":0,"parameterNumber":3,"parameterNumberName":"V-component_of_WINDS"},"data":[0,0,0,0,0,0,0,0,0,0,0,0,0,0,0,0,0,0,0,0,0,0,0,0,0,0,0,0,0,0,0,0,0,0,0,0,0,0,0,0,0,0,0,0,0,0,0,0,0,0,0,0,0,0,0,0,0,0,1.9264,1.9263,0,1.9191,1.919,1.9189,1.9171,1.9171,1.9172,1.9172,1.9092,1.909,1.9087,0,0,0,0,0,0,0,0,0,0,0,0,0,1.9383,1.9381,1.9264,1.9263,1.9262,1.9191,1.919,1.9189,1.9171,1.9172,1.9172,1.9173,1.9093,1.909,1.9087,0,0,0,0,0,0,0,0,0,0,0,0,0,1.9323,1.938,1.9264,1.9245,1.9242,1.9191,1.919,1.9189,1.9171,1.9172,1.9172,1.9173,1.9094,1.9091,1.9087,1.9049,0,0,1.9075,1.9073,0,0,0,0,0,0,0,0,1.9326,1.9318,1.9249,1.9246,1.9243,1.9191,1.9203,1.9142,1.9171,1.9198,1.9172,1.9173,1.9124,1.9118,1.9103,1.9045,1.9041,1.9075,1.9072,1.9071,1.9069,0,0,0,0,0,0,0,1.933,1.9321,1.9235,1.9247,1.9244,1.9238,1.923,1.9191,1.9158,1.9195,1.9194,1.9186,1.9123,1.9106,1.9101,1.904,1.9075,1.9071,1.9069,1.9067,1.8947,1.8946,0,0,0,0,0,0,1.9338,1.9325,1.9237,1.9233,1.9287,1.9235,1.9227,1.9207,1.9158,1.9152,1.9185,1.9185,1.9113,1.9105,1.9098,1.9049,1.9071,1.9067,1.9065,1.8948,1.8946,1.8945,0,0,0,0,0,0,1.9341,1.9331,1.924,1.9278,1.9266,1.9233,1.9211,1.9205,1.9189,1.9151,1.9144,1.9175,1.9113,1.9103,1.9061,1.9046,1.9065,1.9062,1.8949,1.8947,1.8946,1.8952,0,0,0,0,0,0,1.9345,1.9332,1.9318,1.9278,1.9265,1.9206,1.921,1.9203,1.9183,1.9182,1.9139,1.9132,1.9113,1.9067,1.9057,1.9041,1.9059,1.895,1.8948,1.8946,1.8953,1.8952,1.895,0,0,0,0,0,1.9349,1.9322,1.9318,1.9307,1.9247,1.9206,1.9198,1.9177,1.9182,1.9167,1.9142,1.9134,1.905,1.9063,1.9052,1.9034,1.895,1.8948,1.8946,1.8954,1.8952,1.895,0,0,0,0,0,0,1.9359,1.9316,1.9311,1.9271,1.9242,1.9203,1.9183,1.9175,1.9143,1.9144,1.9118,1.9108,1.9068,1.9047,1.9062,1.8994,1.9,1.8996,1.901,1.9007,1.9005,1.9011,1.9055,0,0,0,0,0,1.9357,1.9328,1.9292,1.926,1.9246,1.9217,1.9198,1.9185,1.9154,1.9141,1.9114,1.9082,1.9048,1.9027,1.8994,1.8951,1.894,1.8933,1.8931,1.893,1.8926,1.8901,1.8897,1.8939,1.8939,1.8939,0,0,1.9351,1.9324,1.9308,1.9261,1.9238,1.9207,1.9207,1.9175,1.9152,1.9136,1.9095,1.9073,1.9036,1.8994,1.8973,1.8975,1.8913,1.8928,1.8927,1.8924,1.8899,1.8895,1.8891,1.8938,1.8938,1.8938,0,0,1.9326,1.9303,1.9274,1.925,1.9215,1.9197,1.919,1.9151,1.9137,1.9096,1.9083,1.9055,1.8998,1.8972,1.8951,1.8917,1.8907,1.8906,1.8897,1.8873,1.8869,1.8866,1.8853,1.8849,1.8903,1.8903,1.8903,0,1.9323,1.9278,1.9259,1.9228,1.9207,1.9193,1.9162,1.914,1.9095,1.9081,1.9084,1.9012,1.8986,1.8937,1.8929,1.8913,1.8903,1.8911,1.8872,1.8868,1.8865,1.8852,1.8847,1.8903,1.8903,1.8903,1.8903,0,1.9276,1.9245,1.9225,1.9184,1.9162,1.9131,1.9105,1.9084,1.9073,1.9054,1.9011,1.898,1.8941,1.8928,1.8916,1.8877,1.8879,1.8877,1.8882,1.8862,1.8849,1.8844,1.8903,1.8903,1.8903,1.8903,0,0,1.9253,1.9203,1.9196,1.9177,1.9138,1.9113,1.9081,1.9044,1.9026,1.8996,1.8967,1.892,1.8918,1.8895,1.888,1.8859,1.8832,1.8859,1.8858,1.8855,1.8786,1.8787,1.8782,1.8827,1.8826,1.8825,1.8789,0,1.9222,1.9167,1.9149,1.9101,1.9072,1.9059,1.9031,1.9003,1.8984,1.8955,1.8933,1.89,1.89,1.8886,1.8865,1.884,1.8818,1.8843,1.8798,1.8797,1.8807,1.8775,1.8776,1.8744,1.8784,1.8783,1.8782,0,1.9178,1.9149,1.91,1.9064,1.9051,1.9027,1.8991,1.8964,1.8932,1.8919,1.8894,1.8881,1.8845,1.8853,1.8803,1.882,1.8801,1.8786,1.8784,1.8778,1.8788,1.8767,1.8733,1.8728,1.8775,1.8775,1.8776,0,1.9166,1.9114,1.9078,1.9062,1.902,1.9003,1.8984,1.8953,1.8931,1.89,1.8886,1.885,1.883,1.8802,1.8779,1.8787,1.8731,1.8737,1.8718,1.8718,1.8706,1.8706,1.8666,1.8695,1.8695,1.8695,1.8695,0,1.9133,1.9102,1.9072,1.9049,1.9015,1.8994,1.896,1.894,1.8912,1.8885,1.887,1.8844,1.8816,1.8786,1.8768,1.8729,1.872,1.8707,1.8703,1.8708,1.871,1.8694,1.8695,1.8694,1.8694,1.8695,1.8695,0,1.9112,1.9091,1.905,1.9014,1.9004,1.8981,1.8949,1.8925,1.8907,1.8871,1.8862,1.8831,1.8795,1.877,1.8723,1.871,1.8668,1.8664,1.8679,1.8677,1.8659,1.866,1.8607,1.8598,1.8634,1.8633,1.8633,0,1.9092,1.9069,1.9031,1.9012,1.8994,1.8964,1.8943,1.8921,1.8899,1.8861,1.8842,1.8805,1.8775,1.8717,1.8689,1.8653,1.8647,1.8631,1.8642,1.8648,1.8646,1.8647,1.8644,1.8629,1.8629,1.8629,1.8628,0,1.9058,1.9049,1.902,1.8987,1.8963,1.8935,1.8908,1.8893,1.8866,1.8842,1.8806,1.8782,1.8735,1.8698,1.866,1.8638,1.8628,1.8626,1.8619,1.8624,1.8633,1.8627,1.8674,1.8626,1.8627,1.8627,1.8627,1.8627,1.9036,1.9015,1.8985,1.8953,1.8931,1.8905,1.8882,1.886,1.883,1.8791,1.878,1.8742,1.871,1.8657,1.8635,1.8604,1.8605,1.8596,1.8593,1.8591,1.8591,1.864,1.8597,1.8597,1.8597,1.8597,1.8597,0,1.9001,1.8981,1.8952,1.8915,1.8889,1.8885,1.8854,1.8832,1.88,1.8771,1.8742,1.87,1.8664,1.8634,1.8597,1.8578,1.8572,1.8568,1.8569,1.8564,1.8593,1.8602,1.8573,1.8573,1.8573,1.8574,1.8574,1.8574,1.8979,1.8943,1.893,1.8882,1.8862,1.8826,1.8809,1.8785,1.8762,1.8716,1.8687,1.8669,1.8639,1.8599,1.8566,1.8558,1.8544,1.8542,1.8532,1.8559,1.8562,1.8564,1.8573,1.8539,1.8539,1.8506,1.8506,1.8506]}]]